Temp
64 64 64 65 65 65 65 65 65 64 64 65 65 65 65 65 65 69 67 68 69 70 68 78 80 80 81 74 75 73 60 58 61 63 64 70 68 70 71 71 71 73 70 72 75
63 64 64 64 64 64 65 65 64 64 64 64 64 64 65 65 66 66 69 70 70 69 74 72 72 75 71 70 70 64 58 62 69 69 66 70 68 69 67 69 67 68 71 74 74
63 62 64 64 64 64 64 64 63 63 64 64 64 64 64 65 62 65 68 69 69 70 74 74 74 72 66 68 66 64 59 67 68 70 72 69 67 69 66 64 69 66 69 71 72
62 62 62 63 64 64 64 64 63 63 63 63 63 63 63 65 49 66 68 69 68 72 71 71 70 64 62 61 69 59 67 69 68 67 67 66 70 65 66 64 73 73 73 72 72
60 61 61 62 63 64 64 63 63 63 63 63 63 63 62 57 59 71 68 71 71 70 66 67 65 64 60 64 65 60 64 67 69 65 65 67 62 64 64 69 72 73 72 69 69
60 60 60 61 62 63 63 63 63 62 63 63 63 63 57 50 70 73 71 71 71 69 66 67 66 68 64 62 61 64 65 64 64 64 64 61 61 64 65 70 70 71 69 70 69
59 59 60 61 62 62 62 62 63 62 62 63 63 63 57 57 71 71 70 69 70 69 65 68 69 63 63 59 65 63 57 59 59 62 61 62 56 58 65 68 67 68 67 69 70
59 59 60 60 61 61 61 61 61 62 62 63 63 62 53 69 70 68 69 68 71 71 68 69 68 63 61 61 59 53 54 47 58 60 61 58 47 62 68 65 64 66 65 67 69
58 58 59 59 60 60 61 61 59 61 62 62 59 58 51 64 61 67 68 64 66 67 68 70 65 58 58 51 46 48 41 46 52 62 59 55 47 61 64 60 60 61 63 66 66
58 57 58 58 58 60 60 60 60 58 59 60 59 49 56 54 61 64 68 66 62 61 59 58 55 50 50 46 36 42 42 47 47 54 52 51 50 58 58 58 58 59 61 62 64
58 57 58 56 56 58 59 55 50 48 51 47 48 49 56 61 64 60 65 61 61 57 47 53 45 42 47 50 52 49 44 46 51 56 50 49 51 54 59 57 56 57 58 60 62
57 57 58 58 56 54 57 52 55 55 44 51 54 55 60 61 51 57 63 53 52 45 51 47 41 51 55 53 50 48 44 44 49 54 49 48 48 54 57 57 58 58 59 60 61
57 57 57 58 56 52 50 54 62 61 46 46 52 53 54 57 52 51 57 54 50 47 47 44 49 55 53 50 47 46 44 44 45 48 49 46 42 48 55 60 60 61 62 62 61
56 57 56 57 52 50 46 56 58 58 37 39 44 50 54 56 49 59 59 55 51 46 48 46 55 51 48 48 49 42 50 49 46 42 34 47 28 45 51 54 57 59 58 59 60
56 56 57 57 53 47 49 53 56 51 24 43 44 61 56 51 51 51 60 54 46 47 48 44 47 47 45 48 51 44 50 48 45 40 39 40 37 39 48 47 51 54 56 57 58
56 56 56 53 53 56 54 53 50 33 24 36 45 44 45 49 50 51 51 56 55 48 48 47 49 49 49 52 52 52 45 44 42 40 31 38 37 36 45 49 51 53 57 58 57
55 56 54 56 47 56 53 46 30 26 39 34 37 43 43 42 45 46 43 42 40 36 36 44 44 49 50 45 49 48 40 29 26 28 24 40 37 40 52 53 54 55 56 56 56
55 55 54 56 56 55 48 35 24 32 34 42 43 42 38 44 43 43 42 38 45 44 39 35 32 43 48 46 41 42 41 30 22 24 28 37 30 40 50 55 58 57 55 55 54
55 50 49 52 54 52 38 26 26 32 35 39 41 36 36 42 43 42 40 40 44 47 39 36 37 48 49 50 49 41 35 44 32 28 25 32 38 47 50 52 51 52 53 51 53
48 46 46 53 51 43 32 30 32 35 35 36 33 38 32 37 39 39 39 45 44 49 51 44 34 43 46 48 48 44 47 33 34 19 19 29 31 37 43 47 52 51 51 51 51
46 37 46 50 46 34 28 29 32 37 36 32 35 35 38 37 40 37 39 45 49 48 50 45 40 34 40 38 39 41 38 40 40 33 23 22 30 49 47 48 51 50 52 52 50
42 31 45 49 32 32 30 32 37 37 36 34 34 37 38 41 38 38 38 44 53 52 43 47 40 30 34 43 48 47 42 42 32 28 33 33 33 52 51 50 51 53 54 53 52
34 34 44 46 28 29 31 32 37 35 34 33 32 33 35 40 35 41 42 50 52 50 45 47 35 27 30 35 39 38 42 44 42 37 30 28 33 52 53 52 53 51 49 52 51
38 29 34 37 36 31 28 29 27 40 37 36 34 38 33 35 43 38 41 46 49 50 48 49 38 35 30 35 35 32 38 41 40 31 32 32 37 45 47 48 48 49 51 50 48
38 30 32 28 29 31 33 32 29 29 38 38 34 32 32 29 34 37 43 44 46 48 47 43 33 37 39 41 40 39 37 38 35 38 33 38 38 45 49 49 50 51 51 50 48
34 31 32 29 33 32 31 26 30 29 33 30 31 38 34 28 32 28 39 43 40 43 44 44 31 35 32 39 39 35 37 39 39 39 39 40 39 51 53 53 52 52 51 49 48
41 40 36 33 29 29 30 28 31 35 37 39 37 36 33 36 40 41 40 39 46 42 40 39 35 32 27 34 33 29 36 38 38 41 40 34 43 49 48 50 51 51 51 53 47
MSLP
1015.41 1015.52 1015.75 1015.97 1016.25 1016.53 1016.81 1017.11 1017.35 1017.52 1017.48 1017.73 1017.82 1017.87 1017.88 1017.81 1017.53 1017.09 1016.54 1016.69 1016.38 1015.93 1015.53 1014.66 1013.65 1013.09 1012.53 1012.27 1012.12 1011.95 1011.83 1011.45 1011.17 1011.41 1012.15 1012.72 1013.04 1013.37 1013.54 1013.76 1014.40 1014.76 1015.26 1015.99 1016.51
1015.32 1015.42 1015.52 1015.72 1016.03 1016.31 1016.58 1016.87 1017.10 1017.37 1017.42 1017.62 1017.70 1017.86 1017.90 1017.80 1017.59 1016.94 1016.86 1016.45 1016.25 1016.22 1015.64 1015.09 1014.42 1013.92 1013.13 1012.75 1012.56 1012.38 1012.21 1011.81 1011.66 1011.90 1012.32 1012.80 1013.05 1013.44 1013.73 1014.14 1014.91 1015.57 1016.05 1016.35 1016.60
1015.08 1015.29 1015.35 1015.48 1015.79 1016.08 1016.32 1016.62 1016.99 1017.29 1017.42 1017.54 1017.80 1018.09 1017.82 1017.89 1017.47 1016.46 1016.74 1016.53 1016.37 1016.47 1016.11 1015.62 1015.18 1014.65 1013.86 1013.30 1013.04 1012.77 1012.65 1012.37 1012.62 1012.59 1012.68 1013.24 1013.47 1013.57 1013.81 1014.25 1014.44 1015.34 1015.96 1016.36 1016.52
1014.90 1015.05 1015.18 1015.18 1015.45 1015.76 1016.02 1016.45 1016.94 1017.34 1017.48 1017.68 1017.89 1018.04 1018.01 1017.98 1017.38 1016.60 1016.64 1016.42 1016.38 1016.33 1016.32 1015.65 1015.34 1014.96 1014.43 1013.82 1013.35 1013.48 1013.10 1012.98 1013.10 1013.50 1013.51 1013.72 1013.76 1014.11 1014.04 1014.64 1014.23 1014.93 1015.42 1015.95 1016.23
1014.57 1014.82 1015.03 1015.10 1015.25 1015.51 1015.82 1016.17 1016.68 1017.09 1017.43 1017.70 1017.84 1017.98 1018.15 1017.72 1016.55 1016.36 1016.45 1016.21 1016.13 1016.28 1016.29 1015.94 1015.57 1015.29 1014.81 1014.20 1013.93 1014.15 1013.68 1013.75 1013.81 1014.35 1014.27 1014.39 1014.38 1014.56 1014.54 1014.56 1014.70 1015.12 1015.72 1015.88 1015.93
1014.25 1014.54 1014.79 1015.04 1015.17 1015.30 1015.58 1015.98 1016.41 1016.94 1017.32 1017.69 1017.74 1017.88 1018.08 1017.18 1016.31 1016.27 1016.35 1016.27 1015.99 1016.07 1016.18 1016.12 1015.64 1015.43 1015.17 1014.87 1014.61 1014.49 1014.40 1014.43 1014.68 1015.00 1014.97 1015.05 1014.90 1014.94 1014.96 1014.71 1014.92 1015.33 1015.69 1015.76 1015.81
1014.03 1014.33 1014.58 1014.76 1015.01 1015.15 1015.28 1015.79 1016.25 1016.67 1017.24 1017.55 1017.73 1017.74 1017.52 1016.62 1016.21 1016.48 1016.55 1016.36 1016.29 1016.05 1016.00 1016.19 1016.04 1016.11 1015.83 1015.52 1015.19 1015.45 1015.37 1015.16 1015.35 1015.61 1015.48 1015.62 1015.52 1014.99 1014.91 1014.89 1015.11 1015.34 1015.49 1015.63 1015.69
1013.73 1014.21 1014.31 1014.58 1014.89 1015.15 1015.41 1015.81 1016.09 1016.62 1017.05 1017.41 1017.77 1017.72 1016.92 1015.89 1016.28 1016.67 1016.59 1016.50 1016.46 1016.36 1016.28 1016.24 1016.51 1016.62 1016.53 1016.48 1016.33 1016.53 1016.42 1016.09 1015.75 1015.86 1015.87 1016.27 1015.38 1014.85 1014.72 1015.08 1015.35 1015.45 1015.47 1015.43 1015.59
1013.72 1014.00 1014.07 1014.39 1014.73 1015.03 1015.45 1015.82 1016.23 1016.49 1016.90 1017.46 1017.91 1017.38 1016.70 1016.63 1016.62 1016.42 1016.52 1016.44 1016.65 1016.71 1016.59 1016.73 1016.84 1016.96 1017.40 1017.33 1017.42 1017.33 1016.86 1016.63 1016.08 1015.51 1016.00 1016.36 1015.87 1015.08 1014.83 1014.97 1015.21 1015.28 1015.53 1015.50 1015.60
1013.40 1013.93 1014.02 1014.46 1014.71 1014.99 1015.38 1015.89 1016.33 1016.68 1016.69 1017.49 1017.50 1017.72 1016.68 1016.09 1015.92 1016.12 1016.60 1016.53 1016.65 1016.92 1017.23 1017.27 1017.29 1017.44 1017.79 1017.84 1017.25 1017.36 1017.52 1016.87 1016.34 1016.00 1016.15 1016.43 1016.16 1015.72 1015.53 1015.50 1015.72 1015.74 1015.66 1015.63 1015.61
1013.08 1013.71 1013.84 1014.35 1014.88 1015.05 1015.59 1016.14 1016.89 1016.78 1016.16 1016.37 1016.15 1016.04 1015.30 1015.83 1015.83 1016.08 1016.64 1016.91 1016.61 1017.05 1017.16 1017.46 1017.51 1017.08 1017.46 1017.78 1017.63 1017.21 1017.60 1017.28 1016.67 1016.34 1016.80 1016.88 1016.45 1015.93 1015.61 1015.65 1015.78 1015.84 1015.72 1015.71 1015.78
1012.95 1013.44 1013.77 1014.27 1014.86 1015.18 1015.35 1014.73 1014.69 1014.65 1015.79 1016.02 1015.70 1015.81 1015.68 1015.72 1016.07 1016.36 1016.70 1016.90 1016.65 1016.75 1017.09 1017.64 1017.01 1017.13 1017.23 1017.51 1017.83 1017.78 1017.88 1017.58 1017.05 1016.93 1017.46 1017.37 1016.69 1015.86 1015.49 1015.13 1015.09 1015.39 1015.43 1015.49 1015.76
1012.57 1013.13 1013.81 1014.06 1014.64 1015.38 1015.23 1014.64 1014.19 1014.33 1014.77 1015.49 1015.60 1015.50 1015.84 1015.98 1015.82 1016.00 1016.33 1016.39 1016.44 1016.70 1016.81 1016.65 1016.39 1016.91 1016.96 1017.25 1017.61 1018.00 1018.10 1018.18 1017.98 1017.83 1018.05 1018.12 1016.71 1015.77 1014.89 1014.38 1014.43 1014.58 1014.80 1015.09 1015.57
1012.21 1012.89 1013.59 1013.95 1015.43 1015.42 1015.50 1015.28 1014.92 1014.65 1015.08 1015.22 1015.22 1014.98 1015.40 1015.71 1015.86 1015.68 1016.02 1016.03 1016.37 1016.41 1016.88 1016.85 1016.34 1016.40 1016.79 1016.91 1017.44 1017.76 1018.16 1018.49 1018.59 1018.85 1018.87 1018.26 1017.02 1015.21 1014.22 1013.43 1013.98 1014.22 1014.33 1014.57 1015.17
1011.89 1012.65 1013.35 1013.70 1014.58 1015.03 1015.37 1015.68 1015.45 1015.23 1014.49 1014.40 1014.27 1013.77 1014.51 1015.18 1015.19 1015.68 1015.57 1015.92 1016.12 1016.27 1016.53 1016.28 1016.09 1016.26 1016.36 1016.66 1017.22 1017.65 1018.03 1018.58 1019.22 1019.54 1019.69 1019.24 1018.68 1015.07 1014.17 1013.85 1013.84 1013.77 1014.13 1014.44 1014.94
1011.56 1012.31 1013.21 1013.97 1014.56 1014.37 1015.08 1015.84 1015.63 1015.85 1013.80 1013.81 1013.32 1013.46 1014.41 1014.80 1015.14 1015.65 1015.86 1016.08 1016.23 1016.53 1016.53 1016.57 1016.53 1016.47 1016.35 1016.77 1017.16 1017.79 1018.62 1019.21 1019.80 1020.35 1019.71 1019.30 1018.84 1014.68 1013.98 1013.23 1013.01 1013.28 1013.60 1014.22 1015.14
1011.28 1012.20 1013.09 1013.62 1013.94 1014.47 1015.20 1015.67 1015.20 1013.52 1013.60 1013.57 1013.09 1013.28 1013.39 1014.21 1015.00 1015.41 1015.81 1016.19 1015.92 1016.60 1016.51 1016.73 1016.71 1016.64 1016.73 1016.91 1017.32 1017.98 1018.94 1019.89 1020.68 1020.65 1019.17 1018.25 1018.03 1014.65 1013.32 1012.91 1012.99 1013.26 1013.69 1014.49 1015.37
1011.32 1012.35 1013.16 1013.64 1013.81 1014.33 1015.19 1016.04 1015.06 1013.39 1013.53 1012.88 1012.71 1013.24 1013.33 1013.90 1014.73 1015.02 1015.64 1015.81 1015.61 1015.17 1015.51 1016.06 1016.48 1016.52 1016.76 1016.68 1016.98 1017.74 1018.29 1018.53 1019.40 1019.98 1019.12 1018.12 1016.28 1014.08 1013.09 1012.42 1012.79 1012.97 1013.86 1014.77 1015.75
1011.47 1012.68 1013.41 1013.79 1014.01 1014.53 1015.93 1015.48 1015.01 1014.89 1013.91 1013.57 1013.49 1013.23 1013.49 1013.55 1013.72 1014.54 1014.43 1014.36 1014.34 1014.33 1014.45 1015.02 1015.25 1015.15 1015.86 1016.29 1016.83 1017.66 1017.94 1018.32 1019.16 1019.73 1019.72 1017.83 1015.68 1014.11 1013.08 1012.76 1012.81 1013.56 1014.26 1015.25 1016.12
1011.65 1012.88 1013.52 1013.91 1014.67 1015.99 1016.44 1015.47 1015.21 1014.76 1014.22 1014.54 1013.25 1012.95 1012.87 1012.89 1013.27 1013.65 1013.92 1013.02 1013.50 1013.70 1013.71 1013.88 1015.05 1015.78 1016.06 1016.64 1016.62 1016.91 1017.53 1018.69 1019.15 1019.69 1019.35 1017.09 1015.54 1013.54 1012.96 1013.07 1012.98 1013.48 1014.07 1015.04 1016.06
1011.96 1013.30 1014.04 1014.56 1015.31 1016.60 1016.34 1016.25 1016.03 1015.33 1015.66 1016.21 1013.93 1013.11 1012.61 1012.56 1012.37 1012.50 1011.97 1011.96 1012.10 1012.63 1013.55 1013.92 1014.66 1016.75 1016.77 1016.06 1015.85 1016.71 1017.17 1017.51 1017.94 1018.62 1017.89 1016.60 1014.36 1012.41 1012.35 1012.19 1012.35 1012.68 1013.33 1014.29 1015.68
1012.07 1014.01 1014.82 1014.70 1016.37 1016.84 1016.58 1016.47 1016.51 1016.31 1016.95 1016.55 1015.87 1013.37 1012.51 1011.99 1012.16 1012.21 1011.37 1010.61 1010.83 1011.84 1012.38 1013.59 1014.86 1016.32 1016.27 1015.97 1015.93 1015.93 1016.18 1016.78 1017.25 1017.60 1017.42 1016.57 1013.60 1012.30 1011.91 1011.96 1012.06 1012.45 1012.84 1013.62 1014.68
1012.83 1014.58 1015.46 1015.23 1015.99 1016.63 1016.86 1016.58 1016.46 1016.22 1016.29 1016.57 1015.87 1015.06 1014.08 1012.35 1012.01 1011.47 1010.99 1010.56 1010.41 1011.17 1011.64 1012.98 1014.45 1015.83 1016.64 1016.95 1016.42 1016.10 1016.41 1016.65 1017.21 1017.60 1017.20 1016.79 1012.42 1011.98 1011.50 1011.61 1011.66 1012.06 1012.58 1013.52 1014.45
1012.84 1014.82 1015.73 1015.93 1016.15 1016.09 1016.56 1016.73 1016.20 1015.48 1015.47 1015.30 1015.52 1015.37 1014.55 1012.75 1011.26 1010.81 1010.72 1010.54 1010.44 1010.76 1011.62 1012.58 1013.52 1013.86 1013.65 1013.53 1015.03 1015.79 1015.61 1015.94 1016.32 1016.56 1015.71 1015.44 1012.43 1012.25 1012.10 1011.81 1011.77 1012.03 1012.48 1013.24 1014.29
1012.98 1014.86 1015.44 1015.95 1016.20 1016.03 1016.15 1016.10 1016.12 1015.83 1015.59 1015.55 1015.65 1014.94 1014.98 1013.98 1012.24 1010.95 1010.69 1010.61 1010.69 1010.95 1011.58 1012.80 1013.37 1013.81 1013.53 1013.88 1014.22 1014.42 1014.87 1015.32 1015.73 1014.99 1015.01 1013.35 1013.25 1011.06 1011.78 1011.89 1011.93 1011.94 1012.21 1013.09 1014.02
1013.80 1014.73 1015.29 1015.55 1015.56 1015.88 1015.87 1015.32 1015.19 1015.10 1015.14 1014.73 1014.46 1013.41 1014.27 1014.39 1013.84 1012.83 1012.18 1010.79 1010.53 1011.10 1011.25 1012.34 1012.88 1013.56 1013.67 1013.68 1013.91 1013.96 1014.39 1014.40 1014.28 1014.04 1014.35 1013.30 1012.77 1010.99 1011.08 1011.21 1011.51 1011.72 1012.17 1012.72 1013.23
1014.34 1014.68 1014.81 1015.39 1015.84 1016.06 1015.60 1015.11 1014.72 1014.98 1014.47 1014.04 1013.57 1013.47 1014.05 1013.11 1012.71 1012.99 1013.02 1012.29 1010.29 1010.40 1011.15 1012.17 1012.79 1013.67 1013.56 1013.47 1014.03 1013.94 1012.52 1012.70 1013.25 1012.95 1012.74 1012.79 1011.40 1011.23 1010.30 1010.71 1010.86 1011.24 1011.77 1012.01 1012.52
Wind_Speed
12 11 15 14 13 12 12 10 9 7 6 4 2 2 4 7 11 7 6 3 6 12 14 11 10 8 9 2 3 4 2 3 2 3 8 6 5 2 2 6 8 6 9 8 9
13 12 10 15 13 12 12 11 9 8 7 5 2 2 4 6 7 10 5 4 6 11 10 9 10 10 5 1 2 2 2 4 8 8 8 6 2 7 4 7 8 8 7 8 8
13 13 11 10 15 14 12 11 10 8 7 5 4 3 4 7 5 1 6 6 5 6 7 8 8 7 7 3 3 2 2 5 4 7 6 6 4 1 4 5 11 12 9 8 6
12 14 14 11 12 15 14 13 12 10 8 7 5 4 3 4 6 3 4 5 2 3 5 5 5 3 3 5 3 4 2 4 6 3 2 4 4 3 4 4 8 9 8 8 8
10 11 13 11 9 14 14 14 13 11 9 8 7 6 2 5 5 6 3 4 5 5 3 5 6 6 6 4 3 5 4 4 6 4 3 6 1 5 4 5 5 8 4 4 3
8 10 12 11 10 10 15 15 13 12 11 10 9 6 3 9 3 2 2 4 2 6 6 5 2 7 5 7 4 6 8 6 3 4 1 1 5 5 6 8 8 7 8 7 4
7 9 13 12 10 10 14 12 13 12 12 11 10 6 6 7 2 2 2 2 3 3 5 6 5 4 3 4 4 4 5 0 2 6 4 2 6 10 7 6 4 7 6 7 6
6 10 10 12 11 11 10 10 12 11 13 11 10 8 5 2 3 3 4 4 1 3 4 3 3 6 3 4 3 2 5 7 8 9 3 7 5 10 14 10 10 9 8 8 7
10 10 6 9 9 11 12 10 6 8 14 12 6 7 4 2 5 6 5 8 5 3 1 3 3 1 2 4 3 4 4 9 9 14 7 8 5 10 6 2 6 6 7 7 7
10 11 9 6 4 10 12 11 8 3 10 4 3 4 6 6 7 9 6 4 7 8 4 4 4 4 5 6 7 7 9 8 10 6 3 8 9 12 1 4 7 8 8 7 6
13 11 11 8 4 4 11 7 4 5 5 3 9 2 5 6 5 7 9 4 7 9 7 8 5 11 14 11 10 2 4 10 8 5 4 9 12 10 9 9 9 8 8 8 8
16 15 10 11 6 3 8 7 9 5 4 4 9 5 5 4 5 8 9 8 8 10 10 6 13 12 10 11 10 8 6 8 2 4 1 8 13 11 10 9 9 11 11 9 8
16 16 13 11 10 3 7 16 4 8 5 5 4 10 4 4 4 14 12 6 9 12 14 9 3 16 14 10 11 10 8 7 7 3 4 8 13 16 13 17 11 12 12 9 9
18 17 14 13 1 4 4 9 10 4 3 7 9 6 6 6 5 13 11 6 6 14 14 11 9 16 11 13 10 12 8 8 7 4 3 10 8 9 6 14 15 15 11 10 9
19 18 17 18 3 4 5 2 5 3 7 14 11 8 12 10 11 10 12 6 8 7 8 4 8 9 11 10 9 5 5 9 9 5 6 10 9 5 7 6 9 10 9 9 9
19 19 18 13 6 2 11 4 4 6 9 11 10 18 16 15 7 7 8 6 3 7 7 9 2 3 7 6 8 5 4 3 3 3 9 9 9 6 9 9 6 3 9 9 11
20 18 14 7 10 7 7 5 5 10 8 7 10 18 22 15 14 9 14 13 9 7 12 9 7 4 1 8 4 10 9 3 3 5 7 5 12 13 14 5 4 8 7 10 11
20 19 10 7 4 9 3 1 7 3 9 5 11 17 21 17 15 15 17 15 16 9 10 9 8 12 7 8 6 13 11 5 7 5 3 8 9 7 2 5 6 4 10 9 9
20 6 4 3 4 5 2 5 4 1 3 6 10 14 13 18 10 15 20 22 19 19 8 10 8 11 16 7 10 6 12 6 4 3 2 6 5 9 5 6 2 6 8 9 8
7 5 4 8 9 5 1 5 1 3 6 8 12 10 17 20 15 18 19 17 16 21 11 2 4 4 6 8 9 7 5 6 6 4 5 7 7 9 4 9 9 8 9 10 9
6 4 6 10 7 4 3 2 2 4 5 4 6 7 16 15 21 17 14 10 27 21 18 3 3 1 6 10 14 11 5 6 5 6 4 3 7 7 3 2 13 10 11 11 10
4 5 5 5 3 1 1 3 1 3 3 1 6 6 12 21 18 17 19 18 13 17 26 16 5 4 8 1 9 16 13 11 5 6 4 8 15 5 1 3 3 8 12 11 13
4 3 2 3 5 4 2 2 3 1 4 4 1 6 8 13 15 24 17 11 8 23 18 16 6 5 3 4 4 8 14 17 15 6 10 8 17 7 10 12 7 6 2 8 10
5 4 2 1 1 3 5 4 4 6 3 5 2 5 5 6 18 19 20 10 9 12 10 18 5 13 16 9 10 8 13 19 17 9 14 15 27 15 9 9 4 5 6 7 10
4 2 0 4 4 3 5 4 7 6 6 8 5 7 2 5 11 11 23 11 7 10 13 10 9 13 17 11 5 7 12 16 18 24 15 22 22 25 16 10 9 10 9 7 11
3 3 1 1 6 8 6 3 9 6 8 6 9 11 8 5 5 13 11 13 11 7 14 11 7 8 13 15 15 15 12 12 23 22 17 25 23 22 17 14 13 12 7 9 12
1 1 1 7 2 4 8 7 7 10 7 16 13 7 9 16 11 8 15 19 8 12 14 13 8 6 13 13 8 11 23 19 15 17 19 18 25 22 24 19 17 13 11 17 12
Wind_Direction
264 244 229 223 212 206 204 205 205 205 197 202 216 302 329 317 303 265 277 8 356 340 318 295 292 324 297 323 321 302 298 221 126 218 117 141 135 35 310 119 50 48 72 101 117
256 249 234 227 216 211 203 199 200 202 195 197 218 267 315 316 282 266 42 3 2 344 338 348 332 343 294 265 316 283 275 333 13 54 124 143 191 133 182 126 120 97 93 111 141
260 248 234 229 217 207 200 199 187 194 194 194 204 249 302 312 291 118 20 12 352 295 308 309 297 294 293 331 198 157 256 97 53 56 67 135 104 64 247 178 160 151 140 154 155
262 249 237 226 220 207 198 192 185 184 186 188 194 226 307 264 225 84 345 324 282 256 281 289 264 266 263 227 187 295 332 327 96 46 29 150 132 213 277 71 76 92 124 154 180
260 247 237 231 214 212 202 187 185 178 179 182 184 190 208 215 254 125 309 3 162 165 222 244 254 251 258 271 238 259 241 24 86 126 256 57 234 249 209 145 105 112 136 234 197
253 246 227 218 222 216 205 193 182 177 173 181 182 165 250 224 84 119 36 307 31 184 194 248 297 294 314 285 253 6 267 162 119 237 224 228 244 142 243 275 149 173 216 226 214
235 254 220 216 213 210 201 188 189 176 173 178 179 181 227 220 101 78 242 336 338 259 199 223 320 299 259 292 47 346 299 190 200 253 241 166 260 243 216 266 257 221 217 232 196
216 241 225 212 207 196 180 187 197 185 170 172 178 203 243 131 135 193 213 220 241 338 325 120 13 287 313 41 30 276 270 243 202 208 210 139 251 235 216 208 209 223 225 222 200
217 227 225 211 214 200 187 174 172 224 172 162 175 222 228 113 191 203 236 190 158 174 84 112 230 208 138 207 167 231 240 231 259 191 207 174 269 240 198 250 231 250 243 231 236
207 215 179 180 305 211 191 160 144 212 168 83 340 167 199 207 162 179 205 241 161 155 125 174 184 177 181 207 199 187 222 266 213 178 224 252 236 279 193 233 253 254 263 258 256
203 203 165 160 144 317 183 133 165 198 217 217 158 217 154 85 103 176 183 193 179 178 170 194 184 194 188 216 246 332 297 218 265 150 187 237 255 257 239 196 221 254 259 259 267
206 190 167 161 150 60 220 201 181 136 205 185 179 99 114 188 112 177 164 186 190 183 193 163 218 204 217 199 228 261 255 282 263 86 122 289 279 268 246 250 219 221 234 236 242
199 190 178 153 115 76 314 214 88 184 190 177 188 192 177 189 173 176 179 209 191 194 201 194 184 212 207 212 206 219 223 256 261 161 266 293 279 252 246 245 228 231 236 232 241
194 188 179 113 144 115 257 285 333 24 239 178 194 205 151 188 238 166 196 178 188 206 194 228 209 182 217 212 203 225 212 235 285 306 260 159 285 302 283 229 226 232 237 227 196
187 186 171 146 182 170 144 289 289 68 223 162 168 149 161 181 131 188 184 213 203 206 198 186 198 194 200 207 202 226 235 220 226 256 286 264 279 255 239 200 205 224 216 206 161
182 178 182 178 226 175 121 161 183 183 210 173 147 174 162 197 176 122 165 237 244 225 260 227 34 298 187 215 192 130 110 151 230 211 245 215 225 230 213 213 218 245 183 152 135
173 173 166 171 199 145 125 132 225 211 152 169 170 177 178 177 190 164 176 193 174 166 211 226 178 154 139 181 152 153 146 158 208 213 232 214 208 246 298 318 203 188 166 141 133
161 160 182 177 188 140 120 151 221 230 180 182 169 170 190 160 202 177 170 193 219 217 156 188 196 183 171 196 169 190 190 166 184 199 262 173 234 246 30 218 199 180 146 134 136
148 149 137 168 144 135 117 216 197 175 84 172 162 173 190 186 154 177 191 199 196 203 200 192 228 164 172 175 167 174 219 236 336 134 87 227 259 306 186 270 298 140 136 148 154
129 130 141 110 106 74 149 253 294 5 41 304 179 172 187 190 189 190 187 202 210 208 229 140 155 340 150 181 240 163 150 190 214 208 222 245 241 230 125 204 224 177 184 164 159
113 115 128 100 65 59 260 154 120 86 61 328 251 165 192 185 197 193 204 204 196 201 205 179 154 203 112 210 185 193 201 223 172 215 189 254 240 194 148 355 202 202 180 165 161
103 100 136 102 101 96 297 64 181 151 148 28 285 274 186 191 198 198 212 201 193 194 195 197 120 179 212 183 227 210 208 202 185 212 249 270 261 308 138 69 27 222 182 174 168
82 98 145 111 177 170 122 266 271 176 158 143 257 13 354 223 200 211 206 212 169 192 188 177 185 145 172 268 304 225 214 220 221 252 224 232 257 204 252 240 193 200 170 174 162
109 115 104 152 218 151 135 188 245 228 178 158 272 268 334 287 213 201 215 189 192 192 192 170 159 217 222 221 138 199 208 213 219 220 230 224 258 256 271 290 238 160 209 191 156
24 112 239 149 204 165 169 191 174 193 217 186 226 196 174 295 248 203 206 190 199 172 181 160 218 211 241 260 224 191 205 216 218 231 220 244 240 257 254 247 256 229 226 184 177
101 138 234 74 137 190 207 247 243 220 177 213 236 210 172 213 258 312 291 192 183 187 187 176 231 189 239 236 234 244 197 209 223 236 247 253 261 269 275 277 281 279 272 220 197
26 70 337 153 169 176 222 227 250 262 243 232 221 238 231 237 244 272 294 289 204 175 197 179 205 158 236 234 236 252 233 219 222 226 228 239 249 259 267 267 261 261 249 254 202